map of TST home
TST - Airport
Location
City:  Trang, Trang, Thailand
ICAO:VTST
IATA:TST

Details
Type:Airport (Aerodrome, Airfield)
Use:Public/Civil
Latitude:730'31"N (7.508744)
Longitude:9937'00"E (99.616578)
Datum:WGS 1984
Elevation:67 ft (20 m)
Variation:0.31W (WMM2015 magnetic declination)
0.02 annual change
Runways:1
Longest:6890 × 148 ft (2100 × 45 m), paved

Time
Time Zone:UTC+7
Local Time:

Weather
METAR:VTST 210900Z 06009KT 9999 FEW023 32/21 Q1008 NOSIG
TAF:VTST 210500Z 2106/2206 06010KT 9999 FEW020
TEMPO 2108/2112 VRB10G20KT 5000 TSRA FEW018CB SCT020 BKN100
BECMG 2116/2118 04005KT 8000

Related Locations
Nearby:
Farthest:SPYO: 12393 mi / 19945 km
Pacasmayo [Pacasmayo Airport], LAL, PE

Find:

   beyond  
but within

Other Information
Maps:
NOTAMs:
Links:
Sources:

  
  • flag of Thailand
  

Sectional Chart

Flight Planning
at skyvector.com

Satellite Image

Google Maps Satellite view

 

Copyright © 2004-2019 Karl L. Swartz. All rights reserved.
The Great Circle Mapper name and logo are trademarks of the Great Circle Mapper.
All other trademarks mentioned herein belong to their respective owners.
Please see credits for attibutions and further copyright information.

  Follow gcmap on Facebook Follow gcmap on Twitter Follow gcmap on Google+ GCmap on LinkedIn

hCard Microformat

Geo Microformat